World > North America > United States > Texas

Hourly Orange, TX Regional Weather

Feedback E-mail the Weather

Quick WX

Orange, TX Weather Maps

°F °C°F °C
Orange Weather Map
UTC Time: 6/29/2022, 00:50
Your Time:

Orange, TX Regional Weather

Expires:202206290100;;356996
ASUS44 KSJT 290015
RWRSJT
WEST CENTRAL TEXAS REGIONAL WEATHER ROUNDUP
NATIONAL WEATHER SERVICE SAN ANGELO TX
700 PM CDT TUE JUN 28 2022

NOTE: "FAIR" INDICATES FEW OR NO CLOUDS BELOW 12,000 FEET WITH NO
SIGNIFICANT WEATHER AND/OR OBSTRUCTIONS TO VISIBILITY.


TXZ215-216-236-237-438-290100-
THE UPPER TEXAS COAST
  
CITY           SKY/WX    TMP DP  RH WIND       PRES   REMARKS
ORANGE         MOCLDY    92  69  46 E8        30.02S                  
PORT ARTHUR    PTSUNNY   89  71  55 E14       30.00R                  
GALVESTON      PTSUNNY   89  73  59 E10       30.02R                  
ANGLETON       PTSUNNY   89  70  53 E12G18    30.01R                  
BAY CITY       CLOUDY    88  71  57 SE10      30.02R                  
$$


SKY/WX - Weather  TMP - Temperature  DP - Dew Point  RH - Humidity
WIND - Wind Direction/Speed PRES - Barometric Pressure VSB - Visibility
WCI - Wind Chill Index E13G22 Wind - East Wind 13 mph/Gusts of 22 mph

Trending Headlines

Orange Radar Loop



Orange Quick Facts


National Two Day Weather Forecast


E-mail the Orange Weather Forecast

Voice your opinion or tell us about page issues...